Location: Cisewo
(53.3833°N, 14.9000°E)
Time: 13:41:42
(UTC+00:00)

NOSS 2-1 (D) - Pass Details

Date: 18 April 2021
Orbit: 431 x 1770 km, 63.3° (Epoch: 07 May)

Event Time Altitude Azimuth Distance (km) Brightness Sun altitude
Exits shadow 23:18:26 34° 328° (NNW) 786 4.5 -25.3°
Maximum altitude 23:18:33 34° 333° (NNW) 786 4.5 -25.3°
Drops below altitude 10° 23:22:06 10° 40° (NE) 1,793 6.6 -25.3°
Sets 23:24:42 0° 50° (NE) 2,851 7.6 -25.2°
